Regional Weather Roundup
Issued by NWS

Home | Current Version | Previous Version | Graphics & Text | Print | Product List | Glossary On
Versions: 1 2 3 4 5 6 7 8 9 10 11 12 13 14 15 16 17 18 19 20 21 22 23 24 25 26 27 28 29 30 31 32 33 34 35 36 37 38 39 40 41 42 43 44 45 46 47 48 49 50
000
ASUS43 KMKX 291820
RWRWI

WISCONSIN REGIONAL WEATHER ROUNDUP
NATIONAL WEATHER SERVICE MILWAUKEE/SULLIVAN WI
1200 PM CST THU JAN 29 2015

NOTE: "FAIR" INDICATES FEW OR NO CLOUDS BELOW 12,000 FEET WITH NO
SIGNIFICANT WEATHER AND/OR OBSTRUCTIONS TO VISIBILITY.

WIZ001-002-006>008-014>016-023>028-291900-
NORTHWEST WISCONSIN

CITY           SKY/WX    TMP DP  RH WIND       PRES   REMARKS
SUPERIOR ARPT  CLOUDY    26  18  70 N14       30.21R WCI  15
6HR MIN TEMP:  26; 6HR MAX TEMP:  31;

ASHLAND        CLOUDY    28  19  69 NW18G24   30.13R WCI  15
6HR MIN TEMP:  28; 6HR MAX TEMP:  30;

HAYWARD        CLOUDY    29  20  69 NW12G20   30.10S WCI  19
6HR MIN TEMP:  29; 6HR MAX TEMP:  30;

SIREN          CLOUDY    28  20  71 NW21      30.18R WCI  15
6HR MIN TEMP:  28; 6HR MAX TEMP:  31;

CUMBERLAND     CLOUDY    30  21  69 NW20G30   30.12R WCI  18
RICE LAKE      CLOUDY    32  21  64 NW14G25   30.14R WCI  22
6HR MIN TEMP:  30; 6HR MAX TEMP:  32;

CHETEK         CLOUDY    32  22  69 NW7G22    30.11S WCI  25
6HR MIN TEMP:  31; 6HR MAX TEMP:  32;

LADYSMITH      CLOUDY    32  22  66 NW20G26   30.08R WCI  20
6HR MIN TEMP:  30; 6HR MAX TEMP:  32;

EAU CLAIRE     PTSUNNY   33  21  61 NW18G29   30.12R WCI  22
6HR MIN TEMP:  32; 6HR MAX TEMP:  33;

MENOMONIE      CLOUDY    33  24  70 W16G25    30.13S WCI  22
6HR MIN TEMP:  32; 6HR MAX TEMP:  34;

NEW RICHMOND   CLOUDY    32  23  70 NW20G29   30.18R WCI  20
6HR MIN TEMP:  31; 6HR MAX TEMP:  32;

OSCEOLA        CLOUDY    30  22  70 NW15G26   30.22R WCI  19
6HR MIN TEMP:  30; 6HR MAX TEMP:  33;

$$

WIZ003>005-009-010-017-018-291900-
NORTH CENTRAL WISCONSIN

CITY           SKY/WX    TMP DP  RH WIND       PRES   REMARKS
MANITOWISH WTR CLOUDY    25  19  79 N15G29    29.99R WCI  12
6HR MIN TEMP:  25; 6HR MAX TEMP:  27;

ARBOR VITAE    CLOUDY    28  22  75 N20G30    29.98R WCI  15
6HR MIN TEMP:  28; 6HR MAX TEMP:  29;

WOODRUFF       CLOUDY    28  22  75 N20G30    29.98R WCI  15
6HR MIN TEMP:  28; 6HR MAX TEMP:  29;

RHINELANDER    CLOUDY    28  20  71 NW13G24   29.95R WCI  17
6HR MIN TEMP:  26; 6HR MAX TEMP:  28;

EAGLE RIVER    CLOUDY    26  19  75 NW21G28   29.94S WCI  12
6HR MIN TEMP:  26; 6HR MAX TEMP:  28;

LAND O LAKES   CLOUDY    26  21  83 NW17G24   29.96R WCI  13
6HR MIN TEMP:  26; 6HR MAX TEMP:  28;

PHILLIPS       CLOUDY    30  20  68 NW9G20    30.01R WCI  21
6HR MIN TEMP:  28; 6HR MAX TEMP:  30;

TOMAHAWK       CLOUDY    29  22  74 W16G22    29.98S WCI  18
6HR MIN TEMP:  26; 6HR MAX TEMP:  30;

MEDFORD        CLOUDY    30  22  72 NW17G28   30.00S WCI  18
6HR MIN TEMP:  26; 6HR MAX TEMP:  30;

MERRILL        CLOUDY    31  23  72 N13G22    29.98R WCI  21
6HR MIN TEMP:  27; 6HR MAX TEMP:  31;

$$

WIZ029-030-035-036-043>047-291900-
CENTRAL WISCONSIN

CITY           SKY/WX    TMP DP  RH WIND       PRES   REMARKS
WAUSAU         CLOUDY    31  22  69 NW14G24   29.96R WCI  21
6HR MIN TEMP:  27; 6HR MAX TEMP:  31;

MOSINEE        CLOUDY    30  25  80 NW20G29   29.99R WCI  18
MARSHFIELD     CLOUDY    32  24  72 NW22G30   30.01R WCI  19
6HR MIN TEMP:  28; 6HR MAX TEMP:  32;

STEVENS POINT  CLOUDY    31  22  71 NW13G24   29.98S WCI  21
6HR MIN TEMP:  26; 6HR MAX TEMP:  31;

WAUPACA        CLOUDY    35  24  65 NW14G26   29.97R WCI  26
6HR MIN TEMP:  31; 6HR MAX TEMP:  35;

WAUTOMA        CLOUDY    34  27  76 NW10G21   29.99R WCI  26
6HR MIN TEMP:  29; 6HR MAX TEMP:  34;

WISC RAPIDS    CLOUDY    32  22  66 NW16G26   30.01R WCI  21
6HR MIN TEMP:  29; 6HR MAX TEMP:  32;

CAMP DOUGLAS   CLOUDY    34  30  86 NW21G28   30.03R WCI  22
                                      6HR PCP: TRACE;

$$

WIZ011>013-019>022-031-037>040-048>050-291900-
NORTHEAST WISCONSIN

CITY           SKY/WX    TMP DP  RH WIND       PRES   REMARKS
ANTIGO         CLOUDY    29  23  78 NW18G29   29.93S WCI  17
6HR MIN TEMP:  25; 6HR MAX TEMP:  29;

SHAWANO        CLOUDY    34  25  68 NW8G22    29.94S WCI  27
6HR MIN TEMP:  31; 6HR MAX TEMP:  34;

OCONTO         CLOUDY    32  25  73 MISG      29.91S
6HR MIN TEMP:  29; 6HR MAX TEMP:  32;

STURGEON BAY   CLOUDY    30  25  80 NW21G26   29.90S WCI  17
6HR MIN TEMP:  28; 6HR MAX TEMP:  30;

GREEN BAY      CLOUDY    33  25  72 NW15      29.92R WCI  23
6HR MIN TEMP:  30; 6HR MAX TEMP:  33;

MANITOWOC      CLOUDY    33  28  81 NW14G24   29.90R WCI  23
6HR MIN TEMP:  30; 6HR MAX TEMP:  33;

APPLETON       CLOUDY    32  23  69 N20G28    29.93R WCI  20
CLINTONVILLE   CLOUDY    32  23  69 NW16G22   29.95R WCI  21
OSHKOSH        CLOUDY    33  24  69 NW20G30   29.93R WCI  21
6HR MIN TEMP:  30; 6HR MAX TEMP:  33; 6HR PCP: TRACE;

$$

WIZ032>034-041-042-053>061-291900-
SOUTHWEST WISCONSIN

CITY           SKY/WX    TMP DP  RH WIND       PRES   REMARKS
LA CROSSE      CLOUDY    36  26  67 NW20      30.10R WCI  25
6HR MIN TEMP:  33; 6HR MAX TEMP:  36; 6HR PCP: TRACE;

SPARTA         CLOUDY    34  25  71 NW13G20   30.08R WCI  25
6HR MIN TEMP:  30; 6HR MAX TEMP:  34;

VIROQUA        CLOUDY    32  27  81 NW21G28   30.05R WCI  20
6HR MIN TEMP:  30; 6HR MAX TEMP:  32;

BOSCOBEL       CLOUDY    37  26  64 NW16G24   30.08R WCI  28
6HR MIN TEMP:  34; 6HR MAX TEMP:  37;

PRAIRIE DU CHI CLOUDY    35  26  68 NW20      30.10R WCI  24
6HR MIN TEMP:  33; 6HR MAX TEMP:  36;

PLATTEVILLE    CLOUDY    34  30  84 NW20G29   30.03R WCI  23
6HR MIN TEMP:  32; 6HR MAX TEMP:  34;

$$

WIZ056-057-062-063-064-067-068-291900-
SOUTH CENTRAL WISCONSIN

CITY           SKY/WX    TMP DP  RH WIND       PRES   REMARKS
REEDSBURG      CLOUDY    32  26  78 NW14G22   30.02R WCI  22
6HR MIN TEMP:  30; 6HR MAX TEMP:  32;

BARABOO/DELLS  CLOUDY    32  25  74 N14G23    30.00R WCI  22
6HR MIN TEMP:  29; 6HR MAX TEMP:  32;

LONE ROCK      CLOUDY    35  26  69 NW12G22   30.04R WCI  27
6HR MIN TEMP:  32; 6HR MAX TEMP:  35; 6HR PCP: TRACE;

MINERAL POINT  CLOUDY    34  30  86 NW20G31   30.02R WCI  22
MADISON        CLOUDY    33  26  75 NW17G29   29.98R WCI  22
6HR MIN TEMP:  30; 6HR MAX TEMP:  33; 6HR PCP:  0.01;

MIDDLETON      CLOUDY    34  28  76 NW17      30.00R WCI  24
6HR MIN TEMP:  32; 6HR MAX TEMP:  34;

WATERTOWN      CLOUDY    32  27  81 NW17G26   29.94S WCI  21
6HR MIN TEMP:  30; 6HR MAX TEMP:  32;

MONROE         CLOUDY    32  30  93 NW18G25   29.98S WCI  20
JANESVILLE     CLOUDY    36  27  69 N15G26    29.97R WCI  26
$$

WIZ051-052-058>065-066-070>072-291900-
SOUTHEAST WISCONSIN

CITY           SKY/WX    TMP DP  RH WIND       PRES   REMARKS
MILWAUKEE      CLOUDY    33  25  72 NW14G29   29.92R WCI  23
6HR MIN TEMP:  31; 6HR MAX TEMP:  34; 6HR PCP: TRACE;

WAUKESHA       CLOUDY    30  25  80 NW14G24   29.93R WCI  20
MILWAUKEE/TIMM CLOUDY    32  25  74 NW17      29.92R WCI  21
RACINE         CLOUDY    34  25  69 NW16G25   29.93R WCI  24
6HR MIN TEMP:  32; 6HR MAX TEMP:  34; 6HR PCP: TRACE;

BURLINGTON     CLOUDY    31  25  78 NW14G30   29.94R WCI  21
6HR MIN TEMP:  30; 6HR MAX TEMP:  31;

KENOSHA        CLOUDY    33  26  75 NW15G21   29.92R WCI  23
6HR MIN TEMP:  32; 6HR MAX TEMP:  33; 6HR PCP: TRACE;

FOND DU LAC    CLOUDY    33  25  72 NW21      29.93R WCI  21
6HR MIN TEMP:  30; 6HR MAX TEMP:  33; 6HR PCP: TRACE;

SHEBOYGAN      CLOUDY    33  26  75 NW15G25   29.90R WCI  23
6HR MIN TEMP:  30; 6HR MAX TEMP:  33; 6HR PCP: TRACE;

WEST BEND      CLOUDY    32  27  80 NW16      29.91S WCI  21
JUNEAU         CLOUDY    32  26  80 NW15G22   29.95S WCI  22
6HR MIN TEMP:  29; 6HR MAX TEMP:  32;

$$

LSZ147-162-291900-
LAKE SUPERIOR

STATION/POSITION TIME  TEMP    WIND        PRES    WAVE
                       AIR SEA DIR/SP/G            HT/PER
                 (UTC) (F)     (DEG/KT/KT) (MB)    (FT/S)
DEVILS ISLAND    1800   25     320/ 29/ 31 1021.2R
PORT WING        1700   28     320/ 20/ 25 1021.0R
SAXON HARBOR     1700   29     320/ 18/ 23 1019.0R
$$

LMZ867-665-643>646-291900-
LAKE MICHIGAN

STATION/POSITION TIME  TEMP    WIND        PRES    WAVE


USA.gov is the U.S. government's official web portal to all federal, state and local government web resources and services.